Location: Grambois
(43.7619°N, 5.5873°E)
Time: 21:23:15
(UTC+00:00)

Cosmos 2218 Rocket - Pass Details

Date: 07 June 2020
Orbit: 955 x 1007 km, 82.9° (Epoch: 07 July)

Event Time Altitude Azimuth Distance (km) Brightness Sun altitude
Exits shadow 03:15:14 - 208° (SSW) 3,160 6.1 -6.7°
Reaches altitude 10° 03:16:21 10° 211° (SSW) 2,763 5.8 -6.6°
Maximum altitude 03:22:26 47° 284° (WNW) 1,317 4.5 -5.7°
Drops below altitude 10° 03:28:36 10° 357° (N) 2,793 6.9 -4.9°
Sets 03:31:17 0° 4° (N) 3,747 7.7 -4.5°
